Regional Weather Roundup
Issued by NWS Kansas City/Pleasant Hill, MO

Home | Current Version | Previous Version | Graphics & Text | Print | Product List | Glossary Off
Versions: 1 2 3 4 5 6 7 8 9 10 11 12 13 14 15 16 17 18 19 20 21 22 23 24 25 26 27

000
ASUS43 KEAX 200910
RWREAX

WEATHER ROUNDUP FOR EASTERN KANSAS AND NORTHWEST MISSOURI
NATIONAL WEATHER SERVICE KANSAS CITY/PLEASANT HILL MO
400 AM CDT FRI OCT 20 2017

KSZ040-057-103>105-MOZ028-029-037-043-201000-
...KANSAS CITY METROPOLITAN AREA...

CITY           SKY/WX    TMP DP  RH WIND       PRES   REMARKS
K.C. INTL      FAIR      59  52  77 S15       30.07F
K.C. DOWNTOWN  FAIR      60  53  77 SW7       30.07F
LEES SUMMIT    FAIR      58  52  80 S10       30.09F
OLATHE - IXD   FAIR      53  50  89 S8        30.08F
OLATHE - OJC   FAIR      55  51  86 S7        30.08F
LAWRENCE       FAIR      56  51  84 SE5       30.07S

$$

MOZ001>008-011>017-020>025-030>033-038>040-044>046-053-054-201000-
...NORTHERN AND CENTRAL MISSOURI...

CITY           SKY/WX    TMP DP  RH WIND       PRES   REMARKS
ST. JOSEPH     FAIR      54  52  93 S5        30.06S
MOSBY          FAIR      55  50  82 SE6       30.08F
WARRENSBURG    FAIR      52  48  87 S6        30.11S
WHITEMAN AFB   CLEAR     52  48  87 S7        30.08S
CLINTON        FAIR      54  50  87 S6        30.13S
SEDALIA        FAIR      61  52  72 S13       30.13S
WARSAW         NOT AVBL
CHILLICOTHE      N/A     49  48  97 CALM      30.10S
KIRKSVILLE     FAIR      57  52  83 SW7       30.11S

$$

MOZ041-047>049-056>058-063>065-088>090-097-201000-
...EASTERN AND SOUTHERN MISSOURI...

CITY           SKY/WX    TMP DP  RH WIND       PRES   REMARKS
ST. LOUIS INTL FAIR      59  51  75 S5        30.17R
SPIRIT OF STL  FOG       47  47 100 CALM      30.16S VSB 1/4
COLUMBIA       FAIR      56  49  77 S6        30.14S
JEFFERSON CITY FAIR      50  46  86 SE3       30.14S
ROLLA          FAIR      58  50  75 S14       30.16S
OSAGE BEACH    FAIR      52  49  89 CALM      30.16S
SPRINGFIELD    FAIR      52  49  89 S8        30.16R
BRANSON        FAIR      54  48  82 CALM      30.18S
JOPLIN         FAIR      56  52  86 S9        30.14S
WEST PLAINS    FAIR      51  47  86 CALM      30.20S

$$

IAZ060-094-KSZ022-034>040-054-083-096-NEZ052-066-093-201000-
...KANSAS...SOUTHEAST NEBRASKA AND IOWA...

CITY           SKY/WX    TMP DP  RH WIND       PRES   REMARKS
TOPEKA         FAIR      61  54  77 S10       30.04F
MANHATTAN      FAIR      61  54  77 SW9       30.01F
EMPORIA        FAIR      57  52  83 S14       30.05F
CHANUTE        FAIR      54  51  90 SE9       30.10S
WICHITA        FAIR      57  54  89 S12       30.03F
OMAHA          MOCLDY    56  49  77 S12       29.98S
LINCOLN        FAIR      57  50  77 S10       29.96F
FALLS CITY     FAIR      56  52  86 S8        30.02F
LAMONI         FAIR      54  51  90 S7        30.06F
DES MOINES     FAIR      59  52  77 S10       30.03S

$$





USA.gov is the U.S. government's official web portal to all federal, state and local government web resources and services.